timestamp,wind_dir_avg,wind_spd_max_dir,wind_spd_avg,wind_spd_gust,battery_voltage,lat,long
2018-10-15 00:00:00+00:00,297.0,301.0,9.43,10.81,,47.59359,-54.27349
2018-10-15 00:10:00+00:00,293.0,289.0,10.33,12.32,,47.59359,-54.27349
2018-10-15 00:20:00+00:00,295.0,296.0,10.49,11.83,,47.59359,-54.27349
2018-10-15 00:30:00+00:00,305.0,304.0,9.79,11.09,,47.59359,-54.27349
2018-10-15 00:40:00+00:00,300.0,301.0,9.69,11.06,,47.59359,-54.27349
2018-10-15 00:50:00+00:00,293.0,287.0,9.37,10.51,,47.59359,-54.27349
2018-10-15 01:00:00+00:00,296.0,296.0,9.33,11.71,,47.59359,-54.27349
2018-10-15 01:10:00+00:00,291.0,298.0,10.15,11.94,,47.59359,-54.27349
2018-10-15 01:20:00+00:00,294.0,294.0,11.06,12.5,,47.59359,-54.27349
2018-10-15 01:30:00+00:00,294.0,291.0,10.33,12.45,,47.59359,-54.27349
2018-10-15 01:40:00+00:00,286.0,286.0,11.24,12.63,,47.59359,-54.27349
2018-10-15 01:50:00+00:00,294.0,297.0,10.2,11.46,,47.59359,-54.27349
2018-10-15 02:00:00+00:00,290.0,299.0,11.39,12.64,,47.59359,-54.27349
2018-10-15 02:10:00+00:00,287.0,288.0,10.03,12.22,,47.59359,-54.27349
2018-10-15 02:20:00+00:00,288.0,293.0,11.18,13.24,,47.59359,-54.27349
2018-10-15 02:30:00+00:00,287.0,287.0,10.85,12.62,,47.59359,-54.27349
2018-10-15 02:40:00+00:00,295.0,295.0,10.45,11.64,,47.59359,-54.27349
2018-10-15 02:50:00+00:00,291.0,291.0,11.06,12.12,,47.59359,-54.27349
2018-10-15 03:00:00+00:00,298.0,299.0,12.18,13.42,,47.59359,-54.27349
2018-10-15 03:10:00+00:00,291.0,299.0,10.32,11.69,,47.59359,-54.27349
2018-10-15 03:20:00+00:00,289.0,281.0,10.05,11.34,,47.59359,-54.27349
2018-10-15 03:30:00+00:00,292.0,295.0,9.82,11.03,,47.59359,-54.27349
2018-10-15 03:40:00+00:00,283.0,277.0,11.42,12.75,,47.59359,-54.27349
2018-10-15 03:50:00+00:00,285.0,281.0,10.36,11.87,,47.59359,-54.27349
2018-10-15 04:00:00+00:00,288.0,284.0,10.36,11.56,,47.59359,-54.27349
2018-10-15 04:10:00+00:00,289.0,289.0,11.81,13.25,,47.59359,-54.27349
2018-10-15 04:20:00+00:00,296.0,299.0,12.05,13.45,,47.59359,-54.27349
2018-10-15 04:30:00+00:00,298.0,303.0,10.57,12.11,,47.59359,-54.27349
2018-10-15 04:40:00+00:00,291.0,290.0,9.97,11.54,,47.59359,-54.27349
2018-10-15 04:50:00+00:00,287.0,289.0,10.83,12.15,,47.59359,-54.27349
2018-10-15 05:00:00+00:00,285.0,285.0,10.14,11.97,,47.59359,-54.27349
2018-10-15 05:10:00+00:00,285.0,274.0,11.47,12.79,,47.59359,-54.27349
2018-10-15 05:20:00+00:00,287.0,293.0,9.91,11.93,,47.59359,-54.27349
2018-10-15 05:30:00+00:00,288.0,292.0,9.33,10.99,,47.59359,-54.27349
2018-10-15 05:40:00+00:00,285.0,282.0,9.7,11.57,,47.59359,-54.27349
2018-10-15 05:50:00+00:00,288.0,283.0,9.64,12.09,,47.59359,-54.27349
2018-10-15 06:00:00+00:00,295.0,294.0,8.71,10.25,,47.59359,-54.27349
2018-10-15 06:10:00+00:00,292.0,291.0,8.72,10.07,,47.59359,-54.27349
2018-10-15 06:20:00+00:00,291.0,291.0,9.03,10.51,,47.59359,-54.27349
2018-10-15 06:30:00+00:00,295.0,294.0,9.19,11.26,,47.59359,-54.27349
2018-10-15 06:40:00+00:00,291.0,298.0,8.51,9.91,,47.59359,-54.27349
2018-10-15 06:50:00+00:00,288.0,287.0,8.67,9.85,,47.59359,-54.27349
2018-10-15 07:00:00+00:00,286.0,288.0,10.08,11.8,,47.59359,-54.27349
2018-10-15 07:10:00+00:00,289.0,292.0,7.55,9.28,,47.59359,-54.27349
2018-10-15 07:20:00+00:00,286.0,286.0,8.71,10.43,,47.59359,-54.27349
2018-10-15 07:30:00+00:00,292.0,295.0,8.68,9.87,,47.59359,-54.27349
2018-10-15 07:40:00+00:00,302.0,306.0,8.56,10.05,,47.59359,-54.27349
2018-10-15 07:50:00+00:00,299.0,298.0,8.92,10.84,,47.59359,-54.27349
2018-10-15 08:00:00+00:00,303.0,303.0,8.17,10.32,,47.59359,-54.27349
2018-10-15 08:10:00+00:00,293.0,289.0,7.81,9.22,,47.59359,-54.27349
2018-10-15 08:20:00+00:00,292.0,288.0,8.4,9.64,,47.59359,-54.27349
2018-10-15 08:30:00+00:00,297.0,294.0,8.06,9.74,,47.59359,-54.27349
2018-10-15 08:40:00+00:00,293.0,289.0,8.83,10.0,,47.59359,-54.27349
2018-10-15 08:50:00+00:00,301.0,305.0,9.4,10.66,,47.59359,-54.27349
2018-10-15 09:00:00+00:00,301.0,300.0,7.98,8.96,,47.59359,-54.27349
2018-10-15 09:10:00+00:00,290.0,289.0,7.88,9.29,,47.59359,-54.27349
2018-10-15 09:20:00+00:00,294.0,287.0,7.64,8.83,,47.59359,-54.27349
2018-10-15 09:30:00+00:00,299.0,302.0,8.1,9.57,,47.59359,-54.27349
2018-10-15 09:40:00+00:00,295.0,307.0,6.92,8.57,,47.59359,-54.27349
2018-10-15 09:50:00+00:00,306.0,308.0,9.12,10.78,,47.59359,-54.27349
2018-10-15 10:00:00+00:00,300.0,292.0,7.68,8.48,,47.59359,-54.27349
2018-10-15 10:10:00+00:00,293.0,301.0,6.52,7.72,,47.59359,-54.27349
2018-10-15 10:20:00+00:00,295.0,300.0,7.74,8.68,,47.59359,-54.27349
2018-10-15 10:30:00+00:00,286.0,289.0,7.8,8.78,,47.59359,-54.27349
2018-10-15 10:40:00+00:00,283.0,281.0,7.62,8.72,,47.59359,-54.27349
2018-10-15 10:50:00+00:00,299.0,307.0,7.07,8.0,,47.59359,-54.27349
2018-10-15 11:00:00+00:00,292.0,289.0,7.25,8.53,,47.59359,-54.27349
2018-10-15 11:10:00+00:00,292.0,299.0,7.81,8.71,,47.59359,-54.27349
2018-10-15 11:20:00+00:00,299.0,301.0,7.0,7.69,,47.59359,-54.27349
2018-10-15 11:30:00+00:00,283.0,285.0,7.43,8.91,,47.59359,-54.27349
2018-10-15 11:40:00+00:00,294.0,298.0,8.14,9.87,,47.59359,-54.27349
2018-10-15 11:50:00+00:00,285.0,287.0,7.96,9.64,,47.59359,-54.27349
2018-10-15 12:00:00+00:00,292.0,294.0,7.0,7.93,,47.59359,-54.27349
2018-10-15 12:10:00+00:00,295.0,294.0,8.14,9.68,,47.59359,-54.27349
2018-10-15 12:20:00+00:00,296.0,302.0,6.88,8.45,,47.59359,-54.27349
2018-10-15 12:30:00+00:00,300.0,300.0,6.73,7.42,,47.59359,-54.27349
2018-10-15 12:40:00+00:00,309.0,310.0,7.39,8.27,,47.59359,-54.27349
2018-10-15 12:50:00+00:00,297.0,297.0,8.44,9.56,,47.59359,-54.27349
2018-10-15 13:00:00+00:00,308.0,307.0,8.53,9.5,,47.59359,-54.27349
2018-10-15 13:10:00+00:00,307.0,308.0,8.79,10.51,,47.59359,-54.27349
2018-10-15 13:20:00+00:00,303.0,300.0,8.85,10.64,,47.59359,-54.27349
2018-10-15 13:30:00+00:00,306.0,306.0,7.28,8.92,,47.59359,-54.27349
2018-10-15 13:40:00+00:00,315.0,312.0,8.74,10.79,,47.59359,-54.27349
2018-10-15 13:50:00+00:00,310.0,309.0,8.13,9.33,,47.59359,-54.27349
2018-10-15 14:00:00+00:00,302.0,302.0,9.33,11.1,,47.59359,-54.27349
2018-10-15 14:10:00+00:00,322.0,316.0,7.73,9.93,,47.59359,-54.27349
2018-10-15 14:20:00+00:00,300.0,294.0,10.56,11.67,,47.59359,-54.27349
2018-10-15 14:30:00+00:00,313.0,313.0,8.34,9.43,,47.59359,-54.27349
2018-10-15 14:40:00+00:00,294.0,295.0,9.66,10.64,,47.59359,-54.27349
2018-10-15 14:50:00+00:00,290.0,294.0,7.55,8.95,,47.59359,-54.27349
2018-10-15 15:00:00+00:00,295.0,294.0,8.6,9.66,,47.59359,-54.27349
2018-10-15 15:10:00+00:00,308.0,313.0,7.2,8.22,,47.59359,-54.27349
2018-10-15 15:20:00+00:00,317.0,322.0,7.44,8.75,,47.59359,-54.27349
2018-10-15 15:30:00+00:00,308.0,310.0,8.21,9.53,,47.59359,-54.27349
2018-10-15 15:40:00+00:00,310.0,318.0,6.84,7.69,,47.59359,-54.27349
2018-10-15 15:50:00+00:00,317.0,309.0,6.41,7.74,,47.59359,-54.27349
2018-10-15 16:00:00+00:00,300.0,298.0,6.9,8.3,,47.59359,-54.27349
2018-10-15 16:10:00+00:00,298.0,298.0,6.7,7.56,,47.59359,-54.27349
2018-10-15 16:20:00+00:00,291.0,285.0,7.02,7.92,,47.59359,-54.27349
2018-10-15 16:30:00+00:00,295.0,295.0,8.19,8.92,,47.59359,-54.27349
2018-10-15 16:40:00+00:00,309.0,316.0,6.36,7.19,,47.59359,-54.27349
2018-10-15 16:50:00+00:00,306.0,307.0,6.07,6.82,,47.59359,-54.27349
2018-10-15 17:00:00+00:00,302.0,302.0,6.8,7.69,,47.59359,-54.27349
2018-10-15 17:10:00+00:00,289.0,298.0,8.41,9.53,,47.59359,-54.27349
2018-10-15 17:20:00+00:00,286.0,287.0,8.42,9.88,,47.59359,-54.27349
2018-10-15 17:30:00+00:00,283.0,285.0,8.46,9.72,,47.59359,-54.27349
2018-10-15 17:40:00+00:00,282.0,280.0,6.99,8.03,,47.59359,-54.27349
2018-10-15 17:50:00+00:00,296.0,303.0,7.92,9.54,,47.59359,-54.27349
2018-10-15 18:00:00+00:00,294.0,293.0,8.68,9.32,,47.59359,-54.27349
2018-10-15 18:10:00+00:00,303.0,312.0,8.53,9.44,,47.59359,-54.27349
2018-10-15 18:20:00+00:00,300.0,305.0,6.35,7.18,,47.59359,-54.27349
2018-10-15 18:30:00+00:00,299.0,298.0,7.54,8.64,,47.59359,-54.27349
2018-10-15 18:40:00+00:00,301.0,300.0,7.97,9.23,,47.59359,-54.27349
2018-10-15 18:50:00+00:00,310.0,308.0,6.67,7.88,,47.59359,-54.27349
2018-10-15 19:00:00+00:00,288.0,285.0,8.03,8.88,,47.59359,-54.27349
2018-10-15 19:10:00+00:00,302.0,305.0,7.28,8.76,,47.59359,-54.27349
2018-10-15 19:20:00+00:00,295.0,289.0,6.77,7.76,,47.59359,-54.27349
2018-10-15 19:30:00+00:00,280.0,277.0,7.45,8.26,,47.59359,-54.27349
2018-10-15 19:40:00+00:00,298.0,304.0,8.02,9.37,,47.59359,-54.27349
2018-10-15 19:50:00+00:00,297.0,307.0,7.13,8.93,,47.59359,-54.27349
2018-10-15 20:00:00+00:00,302.0,303.0,7.01,7.55,,47.59359,-54.27349
2018-10-15 20:10:00+00:00,294.0,293.0,7.02,7.6,,47.59359,-54.27349
2018-10-15 20:20:00+00:00,289.0,290.0,7.43,8.11,,47.59359,-54.27349
2018-10-15 20:30:00+00:00,275.0,279.0,7.74,8.65,,47.59359,-54.27349
2018-10-15 20:40:00+00:00,276.0,279.0,7.89,8.76,,47.59359,-54.27349
2018-10-15 20:50:00+00:00,278.0,273.0,6.71,7.39,,47.59359,-54.27349
2018-10-15 21:00:00+00:00,275.0,275.0,6.33,6.87,,47.59359,-54.27349
2018-10-15 21:10:00+00:00,279.0,273.0,7.33,8.38,,47.59359,-54.27349
2018-10-15 21:20:00+00:00,280.0,282.0,6.84,7.63,,47.59359,-54.27349
2018-10-15 21:30:00+00:00,274.0,278.0,7.3,8.43,,47.59359,-54.27349
2018-10-15 21:40:00+00:00,265.0,271.0,7.79,8.77,,47.59359,-54.27349
2018-10-15 21:50:00+00:00,265.0,266.0,7.47,8.75,,47.59359,-54.27349
2018-10-15 22:00:00+00:00,268.0,268.0,8.05,9.32,,47.59359,-54.27349
2018-10-15 22:10:00+00:00,280.0,280.0,7.86,8.91,,47.59359,-54.27349
2018-10-15 22:20:00+00:00,270.0,271.0,8.18,9.4,,47.59359,-54.27349
2018-10-15 22:30:00+00:00,278.0,279.0,7.21,8.0,,47.59359,-54.27349
2018-10-15 22:40:00+00:00,272.0,278.0,6.44,7.65,,47.59359,-54.27349
2018-10-15 22:50:00+00:00,270.0,273.0,6.69,7.42,,47.59359,-54.27349
2018-10-15 23:00:00+00:00,258.0,260.0,6.83,7.65,,47.59359,-54.27349
2018-10-15 23:10:00+00:00,262.0,254.0,7.1,7.97,,47.59359,-54.27349
2018-10-15 23:20:00+00:00,256.0,259.0,7.4,7.9,,47.59359,-54.27349
2018-10-15 23:30:00+00:00,265.0,265.0,7.88,8.75,,47.59359,-54.27349
2018-10-15 23:40:00+00:00,259.0,263.0,8.42,9.44,,47.59359,-54.27349
2018-10-15 23:50:00+00:00,260.0,264.0,8.47,9.63,,47.59359,-54.27349
